GFSWCAN_500_spd_231.txt.gz
Wind_Speed
22 20 21 20 21 21 20 19 18 15 12 9 7 4 2 4 6 9 13 17 20 26 27 31 36 37 38 37 34 34 31 32 32 30 27 20 23 27 28 28 28 27 25 20 18 22 20 34 29 29 27 31 32 32
22 23 22 21 23 23 23 22 21 20 19 16 14 11 9 6 6 7 9 13 16 21 24 29 35 38 39 38 38 37 33 34 38 30 31 31 29 34 35 29 34 25 26 25 28 30 29 32 33 32 34 33 33 35
22 22 24 25 22 24 24 24 24 23 22 21 20 18 16 14 12 11 10 12 14 17 21 26 32 34 36 37 36 35 37 37 34 33 34 36 35 30 27 23 29 29 26 27 31 34 31 34 34 35 35 34 33 33
22 23 25 26 26 25 26 25 24 24 24 23 22 22 21 20 19 18 16 16 16 18 21 25 25 31 32 34 35 37 36 32 36 31 33 32 31 32 25 29 28 32 29 29 30 34 31 32 32 30 32 30 30 29
23 23 25 27 28 28 26 26 26 25 24 24 23 23 22 23 22 22 22 21 21 22 23 25 24 28 30 30 31 31 32 31 31 31 32 32 33 32 27 31 28 31 29 28 31 28 26 28 25 28 25 24 24 26
23 24 24 26 28 28 28 28 26 27 28 29 27 25 26 25 25 24 25 24 24 26 26 27 28 26 28 28 28 29 30 30 31 32 33 35 32 31 31 28 26 27 25 26 28 23 25 22 20 21 21 22 24 26
29 25 26 26 26 27 29 29 30 30 30 29 31 27 27 26 25 24 23 26 27 28 28 30 27 28 26 27 28 29 29 28 28 28 27 27 27 25 25 25 27 20 25 25 24 23 23 21 20 22 22 24 26 29
32 31 27 25 28 28 27 27 29 28 29 29 30 27 26 25 25 24 24 26 28 28 29 28 30 23 25 26 29 29 29 29 29 28 25 25 26 25 24 25 23 24 24 24 23 23 22 22 22 22 24 27 29 29
32 31 32 30 29 31 31 28 28 29 28 28 29 27 26 25 25 25 23 24 26 29 28 26 27 29 26 27 28 27 32 31 32 29 30 29 30 29 28 28 25 24 24 24 24 21 22 21 22 24 26 27 29 29
31 32 32 33 32 32 33 32 30 29 29 29 30 28 26 25 25 25 24 24 25 27 27 25 27 28 24 27 27 28 29 31 31 31 30 28 29 31 27 28 26 26 25 23 20 21 21 22 24 25 25 27 27 29
29 30 30 29 30 32 33 35 33 30 30 30 32 29 28 26 25 25 24 23 24 25 24 25 25 26 25 24 25 26 26 30 28 32 27 27 26 27 24 24 24 22 21 20 20 20 21 23 23 24 26 26 27 29
35 33 31 32 32 31 32 35 36 33 32 32 32 32 30 28 26 26 23 23 22 24 23 25 24 24 22 23 25 23 25 26 27 27 24 24 28 22 23 23 22 21 20 19 20 21 22 23 23 24 24 26 27 30
35 34 34 35 33 33 32 33 34 35 35 33 33 34 33 31 28 24 21 19 20 21 22 24 24 22 21 24 25 24 28 29 29 25 24 27 21 21 21 21 21 20 19 19 21 22 22 22 23 23 24 26 28 29
37 37 36 37 37 36 34 34 34 34 35 35 35 35 35 32 27 22 22 22 21 22 24 25 23 22 21 21 24 23 24 22 20 18 19 21 19 19 19 18 18 18 19 20 21 21 21 22 22 22 23 26 28 29
35 37 37 37 37 36 35 34 34 34 35 37 37 37 35 31 25 25 24 20 24 24 25 25 24 23 22 23 21 22 18 17 15 17 23 14 18 16 16 16 17 18 19 20 20 21 21 21 21 22 24 26 27 28
32 34 34 34 35 36 34 33 32 35 36 38 37 35 34 30 28 28 26 26 25 26 25 25 24 24 23 22 21 19 18 18 19 19 17 16 16 16 17 17 17 18 19 20 21 21 21 20 21 22 24 25 27 26
31 33 32 33 35 37 37 37 32 33 36 38 37 36 35 32 31 31 30 29 27 26 25 25 24 22 23 22 19 19 20 24 21 19 18 16 16 16 15 16 17 19 19 20 21 21 20 20 21 23 25 26 27 25
31 31 31 32 35 39 40 42 38 34 34 34 37 39 39 37 34 31 32 29 29 28 28 28 24 21 21 20 19 19 22 20 19 18 19 18 17 17 17 17 19 19 19 21 20 19 20 21 22 23 25 25 26 24
30 30 30 31 35 38 40 41 38 32 28 32 34 39 38 38 36 34 31 31 31 28 25 23 22 22 23 22 19 20 18 15 17 17 17 18 19 19 19 20 20 19 19 19 19 19 20 22 22 23 24 24 23 20
27 28 31 32 35 36 39 40 36 34 31 31 34 38 39 40 40 37 36 34 32 31 28 24 23 27 26 23 22 20 17 17 16 17 18 18 19 19 20 20 19 18 19 19 19 20 21 22 22 22 22 22 22 22
25 26 30 32 34 37 38 39 38 33 33 30 32 36 40 41 41 39 37 36 34 29 27 26 28 29 25 19 24 23 22 20 19 20 19 19 19 19 19 19 19 19 20 19 20 22 22 22 21 21 20 21 23 23
23 23 28 32 33 37 38 36 38 34 33 30 29 34 41 41 41 42 40 38 33 30 30 30 30 28 26 27 26 24 23 24 22 22 21 21 21 20 21 21 21 20 21 21 21 22 23 23 22 21 19 22 23 23
21 21 24 30 33 35 37 35 37 35 34 32 29 32 40 42 41 40 40 37 34 33 33 32 30 28 30 26 28 26 26 25 25 25 23 24 26 26 25 22 22 23 25 25 22 23 23 23 22 21 19 21 21 22
20 19 23 29 34 34 34 35 37 33 32 32 30 32 39 40 40 39 37 36 36 34 35 35 30 27 27 25 27 27 27 27 27 27 26 27 27 29 28 23 17 17 28 23 24 24 24 23 21 20 20 20 20 21
17 17 19 26 28 29 31 34 35 34 33 32 31 31 36 39 38 37 35 35 34 33 31 28 27 27 26 25 27 27 26 28 29 29 29 29 29 32 32 29 24 23 22 22 23 26 22 26 20 20 19 20 21 20
15 13 15 21 24 25 29 31 33 31 30 29 31 31 32 33 35 34 35 35 33 30 28 28 28 27 27 27 28 29 30 28 29 28 28 31 30 31 30 26 21 21 20 16 18 26 32 34 23 19 18 18 18 21
17 12 13 17 20 25 25 28 29 28 29 28 27 28 29 29 30 31 30 30 30 28 28 27 28 28 28 28 29 30 31 30 30 29 30 29 28 24 23 23 17 23 19 19 23 36 38 30 20 17 16 16 18 17
17 13 13 16 19 23 23 24 25 25 24 25 25 24 25 25 24 24 26 24 24 26 26 27 28 29 29 29 29 30 30 31 29 28 29 27 27 26 22 22 21 18 21 20 18 19 19 17 16 16 17 19 17 16
17 14 15 17 18 20 22 23 23 24 24 24 22 20 20 21 20 20 21 23 26 26 26 27 27 27 26 26 25 25 24 23 23 24 25 24 22 20 21 19 17 16 14 15 16 15 14 14 15 18 17 10 13 17
17 16 18 19 19 19 19 19 19 19 19 19 19 20 20 18 18 19 20 20 20 22 23 24 24 24 24 22 22 22 20 17 19 19 18 16 17 18 17 14 12 10 9 8 7 8 12 15 7 2 8 12 14 15
18 20 22 22 22 23 21 19 18 17 15 15 15 14 13 14 16 16 17 18 19 19 20 21 22 23 22 21 20 19 16 15 15 16 15 16 16 16 15 13 10 8 6 6 7 7 2 2 4 7 10 10 10 12
19 19 20 20 20 20 20 19 18 15 12 11 10 11 11 11 12 14 15 15 16 17 18 19 21 20 20 19 18 20 19 19 16 17 16 14 11 14 17 14 11 9 7 6 3 4 0 3 5 6 7 8 5 12
21 21 21 22 21 20 19 17 15 12 10 8 7 5 6 6 7 9 10 11 12 14 15 16 17 16 15 18 20 21 20 16 15 15 16 17 15 18 14 11 9 9 9 7 7 3 2 5 6 7 8 8 8 9

GFSWCAN_500_spd_234.txt.gz
Wind_Speed
21 21 21 21 22 20 20 20 19 17 14 11 8 5 5 6 8 12 15 20 23 25 18 23 28 32 33 33 30 34 34 32 30 28 27 15 17 16 19 26 33 28 28 25 18 14 17 32 34 32 29 31 30 32
22 22 22 22 21 23 22 22 22 21 20 17 14 12 9 7 7 9 12 15 18 24 26 23 28 34 35 35 37 28 23 34 39 33 30 29 30 20 27 32 28 31 30 29 27 31 28 31 33 33 35 35 35 36
23 22 23 23 23 23 22 24 24 24 23 22 21 18 16 13 11 9 11 13 15 17 19 28 31 34 38 42 42 43 42 38 35 34 31 31 32 32 32 32 28 26 33 27 25 33 31 31 34 37 39 39 37 37
21 22 23 24 25 24 25 25 25 25 25 25 24 22 21 19 17 16 14 14 14 15 19 24 28 30 35 38 39 40 37 36 34 31 33 35 36 35 36 34 33 31 34 32 25 33 34 32 35 34 35 38 37 34
23 22 22 23 25 26 26 26 25 26 25 25 25 24 23 22 21 21 20 19 18 19 20 23 15 22 27 32 33 36 36 36 35 35 35 36 37 37 37 31 29 29 33 35 34 34 31 33 28 29 31 29 30 31
26 24 21 21 23 25 28 27 27 26 27 27 26 25 24 23 22 22 23 21 22 23 24 26 25 24 26 28 28 32 33 35 36 33 34 34 38 35 33 33 33 34 34 36 31 31 31 30 27 28 27 24 25 26
30 30 28 25 25 25 25 29 28 28 28 28 28 28 28 26 24 25 25 25 25 26 27 28 30 25 28 30 31 31 33 32 33 33 33 34 38 32 33 32 32 32 28 22 32 28 29 29 26 26 27 25 25 26
33 36 35 31 29 27 26 26 29 29 29 30 30 30 29 30 30 26 26 26 26 26 27 28 31 27 25 29 30 30 31 33 33 32 34 32 33 30 27 28 29 28 24 25 29 28 30 27 27 26 26 25 27 27
29 31 34 35 32 31 29 27 28 28 28 30 30 30 30 29 29 27 26 26 26 26 26 26 28 31 25 30 30 31 29 32 32 34 32 33 31 31 27 26 31 27 28 29 28 28 28 29 27 26 26 25 30 30
28 28 29 32 32 31 31 32 29 29 29 28 29 31 29 28 29 27 26 26 26 25 22 23 28 31 26 28 31 32 27 30 31 31 33 35 31 29 31 27 30 30 31 32 30 30 29 27 25 24 26 28 29 30
28 28 28 28 30 31 31 33 33 32 31 31 31 29 25 31 29 28 27 25 25 23 21 22 26 29 28 25 29 30 30 28 30 31 32 29 30 31 30 27 28 29 28 28 27 26 25 24 24 25 27 29 28 29
27 28 29 30 29 29 29 30 30 31 33 34 31 29 30 30 32 31 26 23 22 21 19 22 25 26 29 26 27 29 29 27 27 28 27 25 29 26 25 26 26 25 26 25 24 23 23 23 25 26 27 27 28 28
28 29 30 30 31 33 32 31 30 30 31 34 34 32 32 33 34 30 23 21 20 21 20 23 25 27 26 20 27 28 26 26 27 26 24 26 22 22 24 24 24 24 23 23 22 22 22 24 26 26 27 27 27 27
21 23 28 32 32 32 32 32 32 31 30 32 35 35 35 33 29 24 25 24 24 22 21 24 26 27 24 25 27 26 23 24 26 24 22 25 20 21 20 20 22 21 20 19 20 22 24 25 26 26 25 26 25 26
24 25 26 28 33 35 36 36 36 35 34 33 36 38 34 29 29 28 28 29 21 21 21 24 25 27 27 26 25 24 23 21 19 18 21 12 13 18 17 18 18 17 18 19 21 23 23 24 25 25 24 23 24 26
30 29 28 30 30 33 36 36 37 36 37 36 37 35 31 32 29 29 30 26 24 25 23 24 26 27 27 24 24 23 20 17 20 24 13 13 15 15 15 16 16 17 19 20 21 21 22 23 23 23 23 23 24 26
36 36 34 34 33 33 36 35 36 37 40 38 33 33 34 33 30 33 32 31 27 27 26 25 27 27 24 24 22 20 19 20 26 19 14 17 15 16 16 16 17 18 17 18 20 20 22 22 24 22 21 24 25 27
40 40 40 38 37 34 36 36 36 39 40 35 35 36 33 36 37 35 37 33 29 29 28 31 29 26 26 22 20 19 20 23 21 14 13 18 17 18 16 16 16 17 17 19 21 21 23 23 22 22 23 26 26 27
37 37 37 36 37 35 35 36 37 39 39 40 32 35 36 39 40 39 38 33 33 35 32 29 27 25 21 23 22 19 20 19 16 12 15 16 17 18 18 18 18 19 21 21 20 20 22 22 22 22 23 25 26 27
33 31 31 32 34 33 34 36 37 40 41 44 33 30 33 37 41 40 41 36 36 34 32 29 26 25 26 24 21 20 21 17 15 14 15 15 16 17 18 19 20 20 19 19 19 20 21 22 23 24 26 27 27 25
29 28 28 30 31 33 34 36 37 39 41 40 39 29 27 29 38 39 38 41 39 36 34 32 29 22 29 22 22 19 19 20 20 18 15 16 18 17 18 19 19 20 20 20 20 20 21 23 22 22 25 26 27 26
26 26 25 28 29 32 34 36 36 36 37 36 34 33 26 30 34 40 39 41 40 36 35 35 36 32 26 25 22 26 21 21 23 21 18 16 17 18 17 18 20 21 21 21 22 23 23 24 23 22 23 26 25 26
24 25 23 25 28 30 32 35 35 33 34 36 32 31 28 26 32 40 43 38 40 38 35 36 36 32 28 23 24 25 24 27 26 23 20 17 20 21 20 23 24 21 20 22 26 26 20 20 23 23 23 25 25 25
23 23 21 23 25 27 31 31 33 31 31 35 33 30 29 24 30 39 41 38 37 38 39 39 33 29 28 26 27 29 26 26 26 23 21 21 21 20 21 22 28 19 20 22 33 32 27 21 28 26 24 27 27 24
21 21 20 20 23 23 26 29 30 31 30 32 32 28 26 25 28 35 37 39 39 38 37 37 36 33 31 29 29 29 26 26 27 25 21 23 24 21 22 24 31 41 33 33 29 21 21 29 36 35 32 33 27 19
19 17 17 18 20 22 24 27 29 30 31 31 29 28 28 26 27 31 35 38 37 35 36 35 32 32 32 31 29 28 27 24 26 25 24 23 25 27 27 26 27 33 28 25 21 19 23 31 32 32 31 32 22 19
17 15 14 15 19 24 25 26 27 28 30 29 28 26 25 24 25 28 31 32 33 31 30 31 31 30 29 28 27 26 25 25 25 25 28 29 30 30 29 26 25 24 17 22 23 21 21 23 29 35 28 19 19 20
16 12 12 14 16 22 23 24 24 24 25 24 23 22 24 24 24 25 27 30 29 30 29 28 28 28 27 26 24 25 26 27 27 27 30 31 31 30 28 25 19 20 23 27 26 24 21 23 22 19 17 17 20 14
16 11 12 13 16 20 22 22 23 23 23 22 22 21 22 23 22 24 28 27 27 27 27 27 26 25 24 25 26 27 27 28 29 28 27 26 26 26 24 20 19 21 16 16 17 18 19 14 13 14 15 9 9 13
12 11 12 13 16 20 20 22 26 26 24 24 24 23 23 23 24 23 24 24 23 22 23 24 24 25 25 24 24 24 24 24 23 21 21 17 15 17 16 17 16 15 13 14 12 9 8 11 8 1 4 9 11 10
11 13 14 17 18 19 19 22 23 24 24 22 21 20 19 18 17 16 15 17 19 20 20 20 21 21 22 22 20 19 19 19 18 16 15 13 15 14 14 12 11 12 10 8 7 7 7 4 2 4 6 6 4 15
15 16 18 20 21 22 23 23 22 20 19 18 16 14 13 13 12 13 12 12 13 13 15 17 18 18 15 15 16 17 14 11 17 13 14 9 10 12 14 19 15 9 8 6 4 5 4 1 2 1 3 5 8 9
19 20 22 22 22 21 21 21 20 18 16 14 12 11 10 8 6 5 5 7 10 11 13 15 16 16 18 18 16 17 16 14 4 9 13 14 17 8 12 15 9 9 8 6 7 5 2 3 1 5 6 5 7 7

GFSWCAN_500_spd_237.txt.gz
Wind_Speed
20 20 20 20 21 20 19 20 20 18 16 13 9 6 5 6 8 12 17 17 21 19 27 32 28 27 23 22 23 38 15 26 20 21 20 19 13 4 9 16 22 25 26 25 26 26 25 27 28 27 27 26 28 28
19 20 21 21 21 21 20 21 22 23 21 19 16 12 9 7 7 9 12 17 21 22 24 24 27 25 27 27 27 17 16 29 32 29 29 29 30 28 28 25 30 31 30 27 27 27 29 30 27 28 29 29 31 32
20 21 21 22 21 21 22 21 22 24 25 23 21 18 16 13 10 9 10 11 14 18 24 24 24 26 29 32 32 33 30 24 22 31 31 29 27 26 28 30 30 30 32 34 32 28 28 23 27 30 32 33 33 34
21 20 20 20 21 22 22 23 23 23 25 26 25 23 21 19 17 15 13 11 11 13 18 26 32 27 30 35 38 38 35 35 34 31 30 30 30 32 32 31 33 31 32 35 35 30 31 28 27 29 30 34 36 37
22 20 20 19 19 19 21 23 24 25 24 26 26 25 24 22 21 20 19 17 15 15 15 19 18 22 30 32 34 37 39 37 36 35 31 32 33 35 35 32 33 31 32 33 35 32 30 33 32 28 27 30 33 34
24 25 23 23 21 18 18 20 22 25 27 26 26 26 25 25 24 23 21 20 21 20 20 21 16 18 22 29 34 35 38 39 37 37 36 33 34 36 35 32 33 30 33 37 34 32 32 34 32 28 26 25 32 31
25 25 25 25 25 23 22 20 21 23 27 28 27 28 27 26 25 24 22 22 22 22 23 23 24 20 21 24 26 29 30 35 35 33 32 33 33 34 34 29 29 35 36 34 31 28 31 30 27 27 29 30 30 28
25 27 28 29 30 29 28 26 23 22 24 28 29 28 27 27 27 27 26 25 24 25 25 25 25 27 19 25 29 28 29 30 31 31 31 33 33 34 31 24 25 32 30 28 28 28 30 28 25 26 32 31 31 27
27 26 24 29 31 32 33 32 28 24 23 25 29 30 29 28 27 29 28 29 27 26 25 23 23 27 24 26 30 30 31 31 31 31 31 34 34 33 29 27 27 27 26 28 31 32 32 30 28 27 32 30 32 28
27 27 26 25 27 28 30 32 31 30 25 25 26 27 26 29 28 28 28 28 28 26 23 20 25 28 26 24 26 31 29 30 31 30 30 31 33 32 31 30 31 28 28 31 36 33 32 32 30 30 31 27 26 28
25 26 27 27 26 26 25 28 30 30 31 30 26 26 27 28 28 28 28 27 26 23 20 22 23 25 25 26 24 28 30 29 30 30 31 29 26 28 31 28 26 29 30 32 31 29 27 27 27 25 25 26 27 28
25 24 23 24 26 26 26 25 27 30 31 31 31 30 30 28 28 29 25 24 23 21 20 21 22 23 27 25 25 27 28 28 25 27 29 27 21 20 23 24 25 29 31 27 25 25 26 25 25 23 24 26 28 29
23 22 23 24 24 25 27 28 27 28 27 27 28 31 33 32 31 26 21 22 22 23 22 21 22 24 26 25 25 26 27 25 23 25 23 20 18 19 21 22 23 26 24 23 24 24 24 23 23 24 26 27 27 28
21 20 18 19 22 24 26 27 28 32 30 29 29 29 33 33 27 20 23 25 27 24 22 22 22 25 25 24 25 28 25 23 23 21 18 19 19 20 21 23 23 21 20 20 20 20 21 21 23 24 26 27 27 26
25 23 20 19 20 21 23 25 27 29 30 29 30 30 27 25 28 25 26 28 25 23 22 22 21 25 24 24 27 27 24 21 17 17 17 16 12 13 16 16 16 16 18 17 17 17 19 21 23 24 24 25 25 25
26 25 24 23 23 23 24 25 26 30 32 33 33 31 26 28 30 31 32 30 24 22 17 23 22 25 26 25 25 24 21 19 19 15 14 14 14 15 15 14 14 13 14 14 16 17 19 20 21 23 25 22 23 25
30 30 31 31 30 30 30 28 29 29 33 36 31 31 32 29 31 32 32 29 30 29 28 27 24 27 22 24 22 21 21 24 19 15 13 14 17 15 14 13 13 14 15 16 16 16 17 19 19 20 23 22 21 24
37 38 38 39 38 37 36 36 34 33 31 31 32 34 36 34 33 33 32 31 27 29 27 29 26 25 24 21 20 21 24 24 14 9 7 14 17 16 15 14 13 13 14 15 17 18 21 20 20 20 21 21 20 23
32 33 36 39 42 41 40 40 39 36 32 32 33 36 37 33 34 36 35 32 30 33 32 32 29 26 23 25 18 21 26 16 10 7 12 15 14 14 14 14 15 15 15 17 17 19 20 19 20 21 21 22 21 23
30 32 32 30 34 39 40 42 42 38 35 34 34 37 36 37 36 35 36 36 34 31 32 34 29 26 26 22 20 14 21 14 8 11 13 12 11 11 11 12 14 16 18 19 18 17 20 21 20 21 24 25 22 24
31 31 32 32 31 34 36 37 38 38 36 34 34 38 38 34 36 38 37 36 40 35 37 31 33 36 29 28 24 24 22 17 13 14 13 12 11 11 13 16 17 19 19 20 20 20 20 22 20 23 27 27 24 23
32 30 30 31 30 32 32 33 34 35 33 32 33 35 38 43 30 35 36 42 43 36 39 40 34 26 28 25 27 26 23 18 15 15 13 13 13 14 16 15 16 18 19 21 23 23 22 23 24 22 22 22 19 20
31 29 28 27 27 28 28 29 31 31 30 31 32 33 36 35 36 28 32 33 37 37 40 41 37 37 35 27 26 24 21 20 17 19 18 17 14 14 15 19 24 11 22 24 26 20 20 23 30 24 22 24 25 29
25 25 24 23 24 24 24 25 26 28 29 30 28 30 31 31 34 32 18 30 38 41 41 44 38 37 35 34 25 26 26 25 28 24 21 20 17 16 15 18 23 22 23 29 31 20 23 29 25 30 23 25 32 30
22 22 21 20 20 18 19 20 23 25 27 27 26 28 31 28 29 27 21 27 35 37 36 38 39 36 34 32 32 33 30 27 26 25 23 19 18 19 19 19 21 25 23 16 26 36 42 42 34 24 23 29 31 31
20 17 16 17 16 14 16 17 20 22 26 26 25 27 29 26 25 23 22 24 33 36 35 33 33 36 37 37 34 31 30 29 28 25 25 23 22 20 21 23 21 20 24 26 27 26 26 18 15 19 23 21 25 25
15 15 14 13 13 14 16 18 21 22 25 27 25 24 27 24 21 21 19 22 29 33 34 31 30 32 33 35 37 35 31 29 28 27 25 24 24 24 25 26 24 22 24 26 27 25 25 19 16 17 19 20 20 17
14 13 10 10 11 14 17 19 20 21 23 23 22 23 22 22 21 19 18 21 24 28 29 30 30 29 30 31 31 28 27 27 27 26 25 24 24 25 28 28 27 26 25 24 20 20 23 24 19 17 17 17 16 16
14 9 10 10 13 17 17 17 18 18 20 21 21 20 19 18 18 18 19 21 23 23 24 26 27 27 27 27 26 25 26 27 25 23 22 23 24 25 27 25 25 24 20 19 17 17 15 15 16 14 13 9 5 8
10 7 10 11 13 17 18 18 21 21 21 20 19 18 18 19 19 18 17 19 21 23 24 24 24 24 24 24 24 24 25 24 24 23 22 23 23 21 20 18 17 15 13 13 14 13 11 12 9 6 4 7 10 11
7 9 10 12 16 18 20 20 21 24 25 22 21 20 21 19 17 15 13 14 18 20 20 21 22 23 21 21 22 23 23 23 20 19 19 18 19 17 16 17 13 11 11 16 10 8 6 4 2 3 5 5 7 9
11 11 12 14 17 18 20 20 20 19 18 17 16 14 15 16 16 15 15 16 17 16 15 13 13 15 18 16 16 21 21 18 16 18 16 15 13 14 14 12 12 9 9 9 5 4 4 3 2 2 5 8 9 10
17 18 17 18 18 18 17 17 16 15 15 16 17 17 16 15 14 11 9 8 9 10 11 12 13 15 15 15 19 18 16 17 17 18 19 14 10 9 12 19 12 7 9 7 5 6 5 3 2 1 4 7 6 8

GFSWCAN_500_spd_240.txt.gz
Wind_Speed
19 18 18 18 19 20 19 18 18 20 18 16 12 9 7 6 7 12 15 19 23 25 27 23 26 34 41 37 32 21 22 36 28 33 33 3 13 11 19 21 24 29 23 16 17 17 21 20 21 24 24 23 24 25
20 19 18 17 18 19 20 20 18 21 22 20 18 14 11 8 7 8 13 19 19 22 22 27 24 26 25 27 24 12 21 41 54 25 21 22 23 24 18 25 18 14 18 26 25 25 23 23 23 24 24 26 24 25
22 20 20 20 18 19 20 20 20 21 22 24 23 20 17 14 11 9 9 11 18 20 22 26 27 26 23 26 26 21 21 25 38 23 21 25 27 24 24 25 26 27 30 30 28 29 27 24 24 23 20 20 24 28
19 19 20 19 19 18 19 20 21 22 23 23 26 25 22 20 17 15 11 9 11 16 23 25 28 31 29 30 30 28 24 19 12 17 20 26 29 29 30 30 30 32 33 32 32 33 31 27 23 19 20 23 26 29
18 18 19 19 18 18 18 18 20 21 23 24 25 27 26 24 22 20 18 15 13 14 16 22 27 30 26 26 26 27 29 25 25 28 31 31 30 30 30 32 34 35 34 31 33 35 32 27 26 26 24 24 27 30
18 20 19 20 19 20 19 18 17 19 21 24 25 26 27 27 25 23 22 20 20 18 17 19 17 22 25 29 30 28 32 34 35 34 36 37 36 34 35 34 36 35 33 32 33 32 27 27 30 29 24 22 24 26
18 19 20 21 23 23 23 21 18 16 18 22 25 26 27 26 26 25 25 24 22 22 21 21 20 19 19 21 25 32 34 35 36 36 35 35 35 36 36 35 35 33 31 32 31 27 27 28 27 25 21 25 26 26
21 22 24 23 24 25 25 25 24 22 19 19 22 26 26 26 26 26 25 25 24 23 23 22 22 20 19 20 25 27 28 30 31 34 34 33 33 33 32 29 27 28 31 31 28 25 25 25 25 24 25 28 29 28
25 25 24 24 24 25 28 28 29 28 26 22 21 23 25 27 27 26 26 26 26 25 23 20 22 24 23 24 27 28 29 28 28 28 28 30 30 29 26 26 28 29 29 30 29 29 26 25 25 26 31 35 34 30
26 25 24 24 26 26 23 27 29 29 31 28 23 21 25 27 27 28 27 26 27 27 26 23 24 27 24 23 24 27 30 31 30 28 30 29 28 28 27 27 27 29 29 30 33 34 30 26 26 29 32 32 31 30
23 24 24 22 23 27 26 25 25 26 29 29 27 25 24 26 26 27 28 26 25 24 23 25 26 27 25 24 24 26 27 28 27 27 29 27 25 27 26 26 27 27 28 30 30 29 28 28 29 29 28 26 26 26
25 24 25 25 24 25 27 27 24 25 26 27 27 28 28 25 25 24 21 22 21 21 22 25 25 25 27 25 22 22 23 26 25 25 25 22 21 23 23 25 25 26 26 24 24 27 27 26 25 24 25 25 24 25
25 24 25 25 25 26 25 25 25 25 24 25 28 28 30 30 27 22 19 17 21 24 23 24 24 24 26 25 23 22 21 23 23 22 18 16 16 19 21 23 21 22 21 21 23 24 23 23 22 22 23 23 23 25
26 25 23 23 24 26 26 25 25 25 26 26 25 25 27 24 25 25 26 26 27 25 24 26 25 24 25 24 22 22 22 22 19 14 12 16 16 18 18 18 19 19 20 22 23 21 20 20 19 19 19 21 23 24
23 23 23 23 23 23 22 24 25 26 27 27 27 29 24 25 23 27 31 30 30 29 28 26 26 24 23 24 21 22 23 19 11 11 13 15 15 15 13 13 12 13 16 17 16 17 16 15 16 18 21 22 23 23
22 23 24 25 25 24 22 21 20 20 22 27 27 26 24 23 25 25 28 32 31 27 27 28 27 25 23 23 22 21 20 11 12 15 13 13 13 11 11 10 11 14 15 14 13 13 14 15 17 17 18 23 20 24
24 24 25 25 25 27 26 25 23 22 21 19 15 24 28 28 29 27 26 29 30 27 27 28 26 26 23 21 18 18 17 15 16 15 12 13 13 13 12 12 12 13 13 13 15 15 15 16 17 19 20 21 22 22
29 29 31 31 32 32 32 31 31 29 25 21 20 26 28 31 30 30 28 28 30 29 27 28 25 26 22 19 20 21 21 12 16 12 13 15 15 14 14 15 13 14 14 13 14 15 16 18 20 21 21 20 21 22
24 24 25 28 32 36 38 39 40 38 32 30 29 30 29 30 31 32 32 31 32 29 28 31 35 28 24 23 21 18 13 15 15 12 14 14 14 13 13 13 14 16 16 14 17 18 18 19 19 19 19 19 20 23
31 31 29 29 28 29 32 35 40 43 39 37 35 36 33 31 30 35 37 35 35 33 31 30 30 27 24 19 22 17 13 16 16 14 15 12 13 12 11 12 13 15 15 15 15 17 17 16 16 18 19 19 21 24
29 31 33 32 31 30 29 30 31 34 39 40 41 39 36 32 31 37 39 39 40 38 36 30 28 30 24 19 18 17 15 17 14 15 16 12 13 11 11 13 16 17 15 13 13 17 18 17 18 17 17 19 21 22
35 36 37 38 37 35 33 31 32 33 33 37 40 42 39 34 36 38 40 40 40 38 36 34 34 37 34 29 21 21 22 22 19 16 18 18 17 15 14 13 15 18 16 14 14 15 17 21 21 18 20 25 25 25
36 38 38 38 36 36 33 33 32 31 32 33 37 39 37 35 36 38 39 38 36 36 37 38 32 33 32 22 27 25 24 24 23 20 22 19 17 16 15 15 15 15 19 18 14 20 27 24 19 20 22 28 34 25
30 28 28 29 30 30 29 28 29 28 28 29 31 33 33 34 35 38 37 27 30 37 39 43 41 45 34 33 29 29 29 26 25 21 22 20 22 21 20 19 17 16 19 21 18 22 22 17 21 27 34 35 21 19
28 25 23 21 21 21 22 21 21 21 22 24 27 29 30 32 33 34 34 36 26 36 40 45 39 41 41 40 33 26 21 24 27 24 18 21 18 18 21 20 19 20 23 21 23 24 23 24 27 27 28 22 19 19
21 19 17 16 16 16 16 15 17 18 20 23 25 27 28 29 29 26 28 33 26 18 27 38 40 37 38 41 41 36 33 32 30 31 32 29 24 21 20 20 20 20 21 23 24 26 26 25 25 26 24 21 19 19
13 13 14 13 14 14 13 15 18 18 19 22 24 25 25 27 28 26 27 27 25 22 25 33 38 38 38 40 40 38 35 36 33 29 27 24 23 22 21 20 20 20 19 21 25 27 26 26 21 17 20 17 15 13
17 15 12 11 11 13 14 17 19 18 19 23 24 23 23 26 25 21 24 23 20 20 24 31 34 34 35 35 35 38 37 35 34 35 29 26 25 25 24 22 21 20 22 23 23 24 22 18 16 16 14 14 13 15
17 16 12 9 12 15 16 16 16 17 19 21 21 20 20 22 21 19 19 18 17 19 24 29 31 30 28 28 30 31 31 32 31 31 30 28 27 27 25 24 23 23 24 21 19 19 16 11 12 12 12 14 13 8
9 10 11 12 14 15 16 18 19 20 20 20 19 20 20 19 17 17 17 16 19 20 21 25 27 28 27 27 27 28 29 27 24 25 25 25 22 21 21 23 22 20 17 15 16 13 7 9 10 9 8 8 8 9
9 10 10 12 15 18 19 20 19 20 20 20 21 22 21 18 16 16 16 17 19 20 21 22 23 24 24 23 24 24 24 24 24 25 25 21 19 19 19 17 17 14 12 10 5 3 6 7 5 4 6 5 6 7
11 11 12 14 15 17 19 18 19 19 18 18 18 17 15 15 15 14 14 14 16 18 20 22 22 22 22 23 22 23 24 23 21 19 18 15 17 17 16 12 13 9 13 12 6 5 6 2 3 4 4 3 4 5
13 16 17 17 17 18 19 18 16 14 12 12 12 12 15 16 17 12 10 11 14 16 18 19 19 18 18 20 19 17 15 15 18 18 17 17 15 13 12 13 14 11 10 8 7 6 8 5 3 1 2 3 5 8

GFSWCAN_500_spd_246.txt.gz
Wind_Speed
28 26 22 22 22 20 20 19 19 20 19 19 19 16 13 10 11 13 16 17 19 17 19 24 23 23 27 26 22 17 18 34 48 22 16 18 21 25 28 28 28 31 27 30 28 28 28 23 19 19 19 19 21 23
29 29 26 23 22 20 19 18 19 20 20 20 20 19 17 13 10 13 15 17 17 19 18 24 24 23 24 27 25 20 14 20 23 28 20 17 19 22 29 36 33 30 31 26 25 16 14 17 19 17 20 22 24 26
29 29 26 25 23 22 20 19 19 20 20 21 21 22 21 18 13 11 13 16 18 19 21 21 25 26 20 24 21 21 18 19 13 16 18 20 23 24 26 22 23 20 18 12 18 24 21 22 24 23 23 26 28 30
26 26 26 27 24 24 22 21 20 20 20 21 21 22 23 22 19 15 13 14 15 19 19 22 23 26 27 22 21 24 25 25 23 19 22 21 26 27 31 31 27 28 22 20 17 22 24 26 26 27 28 28 30 31
27 25 27 23 22 22 21 21 21 21 20 20 21 22 23 25 23 20 18 16 14 16 18 21 21 25 26 26 23 25 27 31 31 30 30 29 18 27 33 35 32 29 27 27 28 28 28 27 29 32 32 33 34 33
23 25 20 20 20 20 20 20 20 21 21 20 20 22 22 24 25 25 22 21 18 17 17 17 18 23 23 29 29 25 26 29 36 36 28 30 33 35 41 38 33 36 31 29 28 27 29 32 35 35 34 35 35 35
17 18 20 20 21 21 20 20 19 19 20 19 19 21 22 23 24 25 26 25 23 21 20 18 17 16 23 26 27 28 27 29 32 31 31 29 32 38 47 37 35 34 34 31 31 34 35 35 35 35 34 34 35 36
19 20 20 19 19 18 18 19 19 21 21 21 19 18 20 22 23 24 24 26 26 25 24 23 19 18 18 19 26 29 29 30 32 31 28 31 32 30 32 31 30 33 34 33 35 35 35 35 34 33 33 33 34 34
19 19 20 20 20 20 20 20 22 22 23 24 24 22 18 18 21 23 25 26 27 27 26 24 23 20 21 20 23 24 26 29 30 31 31 32 31 32 29 29 30 31 34 33 33 32 33 33 33 33 34 34 33 33
21 21 22 22 22 22 22 21 22 23 23 24 26 27 24 22 19 20 24 26 26 27 25 24 26 25 23 23 24 24 26 27 23 22 24 25 22 22 24 25 26 28 29 30 31 30 30 31 31 32 32 33 33 32
24 23 22 23 25 24 23 23 24 24 25 25 27 28 29 28 25 23 22 25 27 25 26 27 27 27 25 24 24 26 26 28 26 23 25 23 19 21 27 25 24 26 27 28 28 28 28 29 31 30 29 28 28 28
25 26 26 26 27 27 25 22 23 25 25 27 27 25 28 29 28 28 25 24 27 30 31 29 28 28 27 27 26 25 24 26 26 22 26 21 18 25 25 24 25 26 27 28 27 25 26 27 25 24 24 23 23 24
26 28 28 26 27 27 27 27 26 26 26 26 29 28 26 27 28 27 27 26 30 31 28 28 28 28 27 29 29 29 29 26 23 24 23 19 25 25 21 20 21 22 24 23 23 23 22 21 20 20 20 21 20 19
27 27 27 27 27 27 26 27 27 27 28 28 29 29 29 27 26 26 29 29 26 26 26 27 28 29 27 28 29 28 27 25 25 22 17 21 22 21 20 20 19 18 19 20 20 19 19 19 18 17 16 16 16 16
27 28 28 28 28 29 28 28 27 27 29 29 29 29 23 24 24 26 28 29 26 23 24 24 25 27 28 28 28 25 26 24 20 15 19 21 21 19 20 19 18 19 19 19 19 18 16 15 15 14 13 13 15 16
23 24 25 26 26 27 27 27 26 26 26 29 30 25 22 26 27 26 28 28 27 28 26 25 25 26 27 29 26 24 22 19 14 18 20 23 23 20 20 20 19 19 19 18 16 15 15 14 12 12 13 15 15 17
19 18 19 21 22 22 23 25 26 27 28 23 18 23 28 29 30 30 28 28 29 29 30 27 25 28 26 26 24 21 18 17 18 22 23 24 23 21 21 19 19 18 18 15 14 14 15 14 14 14 14 15 16 18
21 21 21 23 23 24 23 23 25 25 23 21 22 26 30 32 32 30 29 31 31 30 29 29 27 26 26 25 21 21 22 23 25 23 23 20 22 23 22 21 19 18 17 16 16 14 15 14 13 15 15 16 19 20
23 24 25 26 26 26 26 26 27 24 23 24 26 28 27 26 26 27 28 31 32 31 29 28 29 28 27 24 23 23 24 25 22 21 21 23 23 22 22 20 20 19 18 19 17 15 15 13 13 16 18 19 20 20
25 25 25 26 27 27 29 28 29 30 28 29 28 31 28 26 25 22 22 27 31 32 31 31 29 29 28 25 24 25 25 24 23 20 21 22 22 22 22 19 19 18 18 18 16 14 12 13 16 17 18 19 22 24
31 30 31 32 34 35 33 30 31 32 30 31 33 35 35 33 33 29 26 27 28 31 33 30 27 29 30 30 27 25 26 24 22 20 21 23 22 23 21 19 18 17 17 17 14 13 14 14 15 16 14 16 23 26
41 41 41 38 36 36 37 37 35 35 33 32 32 33 34 37 40 38 35 33 30 26 24 29 29 30 33 32 31 28 25 24 24 24 22 24 23 22 19 16 17 16 15 14 15 17 15 15 16 17 18 20 24 24
47 48 47 45 44 44 40 39 39 38 36 34 30 27 26 28 33 40 42 40 35 31 28 27 31 32 36 37 37 33 28 30 28 25 30 23 23 24 21 18 17 16 16 15 15 15 18 19 20 21 22 23 25 26
43 42 43 43 43 42 39 38 40 42 40 38 36 33 30 30 29 34 41 41 42 38 33 30 32 34 35 38 36 34 34 34 27 28 25 22 23 21 20 20 21 19 18 14 16 16 17 20 18 22 24 23 24 26
36 38 40 41 41 38 36 36 35 37 40 41 40 37 35 34 33 32 34 38 42 41 37 34 32 33 34 38 39 34 38 35 25 28 23 27 23 20 19 18 18 19 20 20 19 16 16 18 21 22 20 22 24 26
21 23 25 27 31 31 29 30 32 32 33 34 35 35 35 37 37 36 35 36 40 42 40 36 33 31 33 36 40 35 37 35 32 29 26 26 20 22 21 19 18 22 22 19 19 19 20 20 20 22 22 23 25 23
2 4 12 15 20 22 23 23 24 24 25 26 28 29 31 33 35 36 35 35 38 42 40 36 31 30 34 38 39 40 36 38 37 32 28 21 22 23 23 19 23 23 18 18 19 20 22 22 21 21 21 22 21 18
18 14 9 9 12 16 16 16 16 16 16 17 20 24 27 27 26 27 30 33 37 38 35 30 30 34 35 37 39 38 39 35 37 28 23 24 26 27 24 24 24 18 19 19 21 24 22 20 20 19 21 18 16 13
12 11 11 8 7 10 12 11 11 10 9 8 13 15 16 19 20 21 20 25 29 30 28 29 29 29 29 34 37 32 33 35 34 30 27 23 21 21 19 22 24 26 27 27 26 23 21 21 20 19 16 13 12 9
6 4 9 10 6 8 11 12 9 15 14 12 11 10 16 23 25 25 25 25 25 26 31 30 23 19 23 31 35 30 30 33 34 29 32 31 33 34 30 28 26 25 26 25 24 22 21 19 17 14 10 10 8 7
4 7 7 4 6 8 10 9 7 8 9 9 8 10 14 19 19 21 23 22 24 28 28 26 25 24 22 26 30 32 30 34 35 32 29 29 29 32 32 31 29 28 24 22 23 21 15 14 12 10 9 8 6 6
8 9 8 8 11 13 15 15 13 9 13 16 17 16 16 17 17 16 18 20 22 22 23 23 22 21 21 21 26 31 32 29 30 29 27 26 26 27 28 27 25 22 23 22 16 12 12 13 11 7 5 6 6 4
16 12 12 15 17 15 15 15 12 16 18 15 15 15 15 15 15 14 15 16 17 20 18 19 20 19 20 22 22 23 23 24 24 23 22 22 23 23 22 21 24 21 12 10 12 13 12 9 8 6 6 6 6 6